Find Starlink 34915

NORAD ID: 65187 Int'l Des: 2025-175 Owner: SPXS Country: US Constellation: starlink operational
LEOCIRCULARRETROGRADESSO

現在のビュー

3D地球を読み込み中...

About Starlink 34915

Starlink 34915 (NORAD 65187) is a starlink constellation satellite (v2 mini) launched Aug 14, 2025 by SPXS of US. It operates in LEO, CIRCULAR, RETROGRADE, SSO orbit with a mass of 575.00 kg.

Starlink 34915について

説明を読み込み中...

次回通過

Passes for default location (London). Set your location on the main map for personalized predictions.

高度履歴

Loading altitude history...

軌道要素

1 65187U 25175P 26194.83335647 -.00043020 00000-0 -26224-2 0 9997
2 65187 97.2849 64.9774 0001824 82.6783 215.2899 15.10547427 5775
Epoch: Jul 13, 2026 • Age: 8 hours

現在のステータス

高度 544.9 km
遠地点 / 近地点 N/A
速度 7.59 km/s
衛星直下点 -26.20°S, 75.22°E
打ち上げ日 Aug 14, 2025
運用期間 0.9 years
タイプ internet

技術仕様

分類 Payload
質量 575.00 kg
乾燥質量 530.00 kg
総質量 575.00 kg
長さ 0.30 m
直径 4.10 m
スパン 29.00 m
形状 Box + pan
製造者 SPXS
バスタイプ Starlink V2MO
フェーズステータス In Orbit
所有者/国 SPXS/US

Most Searched